Location: Berg
(48.4333°N, 13.9167°E)
Time: 05:51:49
(UTC+00:00)

ATLAS CENTAUR R/B - Pass Details

Date: 26 January 2021
Orbit: 475 x 670 km, 64.7° (Epoch: 06 March)

Event Time Altitude Azimuth Distance (km) Brightness Sun altitude
Exits shadow 04:28:13 52° 176° (S) 595 1.4 -21.8°
Maximum altitude 04:28:51 64° 125° (SE) 530 1.3 -21.7°
Drops below altitude 10° 04:32:28 10° 44° (NE) 1,654 4.3 -21.1°
Sets 04:34:38 0° 41° (NE) 2,546 5.2 -20.8°
